Regional Weather Roundup
Issued by NWS San Diego, CA

Home | Current Version | Previous Version | Text Only | Print | Product List | Glossary On
Versions: 1 2 3 4 5 6 7 8 9 10 11 12 13 14 15 16 17 18 19 20 21 22 23 24 25 26 27 28 29 30 31 32 33 34 35 36 37 38 39 40 41 42 43 44 45 46 47 48 49 50
000
ASUS46 KSGX 010411
RWRSGX

SAN DIEGO HOURLY WEATHER ROUNDUP
NATIONAL WEATHER SERVICE SAN DIEGO CA
900 PM PDT SUN APR 30 2017

NOTE: "FAIR" INDICATES FEW OR NO CLOUDS BELOW 12,000 FEET WITH NO
SIGNIFICANT WEATHER AND/OR OBSTRUCTIONS TO VISIBILITY.

CAZ042-043-060-061-PZZ750-775-010500-

GREATER SAN DIEGO AREA

CITY           SKY/WX    TMP DP  RH WIND       PRES   REMARKS
SAN DIEGO AP   CLEAR     74  35  24 CALM      30.02R
NATIONAL CITY    N/A     73  39  29 CALM      30.02R
CHULA VISTA      N/A     72  40  31 CALM      29.94R
IMPERIAL BEACH CLEAR     61  50  67 CALM      30.03R
BROWN FIELD    CLEAR     68  41  37 NW3       30.02R
MIRAMAR MCAS   CLEAR     64  35  34 E5        30.02R
MONTGOMERY FLD CLEAR     68  33  27 CALM      30.02R

$$

NORTH SAN DIEGO COUNTY

CITY           SKY/WX    TMP DP  RH WIND       PRES   REMARKS
CAMP PENDLETON CLEAR     64  49  57 CALM      30.00R
OCEANSIDE AP   CLEAR     65  53  65 SW5       30.00R
OCEANSIDE HBR    N/A     64  59  85 CALM      30.03R
VISTA            N/A     67  45  45 CALM      29.98R
CARLSBAD       CLEAR     67  49  52 CALM      30.00R
DEL MAR          N/A     65  43  44 CALM      30.03R
LA JOLLA SCRIP   N/A     69  39  33 NE2       30.00R
FALLBROOK        N/A     67  46  47 CALM      29.97R
ESCONDIDO        N/A     71  35  27 CALM      30.01S
SAN MARCOS       N/A     69  38  31 CALM      30.01S
POWAY            N/A     64  38  37 CALM      30.02S

$$

EAST SAN DIEGO COUNTY

CITY           SKY/WX    TMP DP  RH WIND       PRES   REMARKS
RAMONA         CLEAR     57  36  45 E3        30.04S
SANTEE LAKES     N/A     65  36  34 W3        30.00R
LA MESA          N/A     70  35  27 CALM      29.95R
JAMUL            N/A     63  34  33 CALM      30.02R
DESCANSO N       N/A     50  30  46 NE5       30.00R
MT. LAGUNA OBS   N/A     52  11  19 W9        29.74S
CAMPO            N/A     61  26  26 CALM      30.05R

$$

ORANGE COUNTY AND THE LOS ANGELES BASIN

CITY           SKY/WX    TMP DP  RH WIND       PRES   REMARKS
JOHN WAYNE AP  CLEAR     65  48  54 S6        29.99R
LAGUNA BEACH     N/A    N/A N/A N/A CALM      29.94S
LAKE FOREST FR   N/A     67  26  21 CALM      29.87S
HUNTINGTON BCH   N/A     62  57  84 CALM      30.00S
LOS ALAMITOS   FAIR      65  42  43 S3        29.99R
FULLERTON      CLEAR     72  39  30 CALM      29.98R
LONG BEACH     CLEAR     67  49  52 NW8       29.99R
L.A. AP        CLEAR     61  49  64 W7        30.00R
L.A. DOWNTOWN  CLEAR     67  52  58 CALM      29.99R

$$

THE INLAND EMPIRE

CITY           SKY/WX    TMP DP  RH WIND       PRES   REMARKS
CORONA         CLEAR     69  34  27 CALM      30.00R
CHINO          CLEAR     66  39  37 W7        30.01R
ONTARIO        PTCLDY    72  32  23 SW8       30.00R
SAN BERNARDINO CLEAR     73  25  16 SW6       30.02R
RIVERSIDE AP   CLEAR     72  32  23 VRB3      30.00R
MORENO VALLEY    N/A     71  37  28 NW3       28.12R
MARCH ARB      CLEAR     64  21  19 W3        30.02R
HORSETHIEF CYN   N/A     65  13  13 W2        30.00R
PERRIS           N/A     70  29  21 SE1       30.02R
HEMET EAST       N/A     68  22  17 CALM      30.06R
FRENCH VALLEY  FAIR      66  28  24 SE3       30.03R
TEMECULA         N/A     69  34  27 S1        30.06S

$$

SAN BERNARDINO AND RIVERSIDE COUNTY MOUNTAINS

CITY           SKY/WX    TMP DP  RH WIND       PRES   REMARKS
BIG BEAR AP    CLEAR     45  21  39 CALM      30.22S
PINE COVE        N/A     49  21  33 NW1       30.03S

$$

SOUTHERN DESERT INCLUDING THE COACHELLA VALLEY

CITY           SKY/WX    TMP DP  RH WIND       PRES   REMARKS
PALM SPRINGS   CLEAR     85  18   8 NW14G24   29.91R
PALM DESERT      N/A     82  31  16 CALM        N/A
THERMAL        CLEAR     74  32  21 NW7       29.86R
BLYTHE         CLEAR     80  21  11 S6        29.88R
IMPERIAL AP    CLEAR     79  31  17 SW8       29.88R
EL CENTRO NAS  CLEAR     81  20  10 SW13      29.89R
YUMA AZ        CLEAR     80  25  13 SW5       29.89
MEXICALI       CLEAR     77  25  14 S6        29.89

$$

UPPER DESERT

CITY           SKY/WX    TMP DP  RH WIND       PRES   REMARKS
VICTORVILLE AP CLEAR     70  21  16 W15G22    30.04R
HESPERIA         N/A     65  24  21 W8        30.11R
PALMDALE       CLEAR     69  26  20 SW14      30.04S
LANCASTER      CLEAR     69  31  24 SW16      30.03S
EDWARDS AFB    CLEAR     69  29  22 SW17      29.99R
DAGGETT        CLEAR     77  26  15 W22       29.96R
29 PALMS N     CLEAR     74  17  11 SW14      30.01R
NEEDLES        CLEAR     83  11   6 SW13      29.88R

$$

REGIONAL REPORTS

CITY           SKY/WX    TMP DP  RH WIND       PRES   REMARKS
SANTA BARBARA  CLEAR     58  55  90 E5        29.98R
SANDBERG       CLEAR     61  30  31 NW20G29   30.14S
LAS VEGAS NV   CLEAR     77   9   7 SW7       29.91S
PHOENIX AZ     CLEAR     79  14   8 CALM      29.89R
TIJUANA        CLEAR     64  41  42 W6        30.05R
ENSENADA NW      N/A     64  32  30 CALM      30.00R

$$

OFFSHORE ISLANDS

CITY           SKY/WX    TMP DP  RH WIND       PRES   REMARKS
CATALINA ARPT  CLEAR     66  28  24 W13       30.04S
SAN NICOLAS IS CLEAR    N/A N/A N/A W18       30.01S

$$

MARINE AND OFFSHORE BUOY REPORTS

STATION/POSITION SKY/WX   TEMP    WIND        PRES    VSBY  SWELL
                          AIR SEA DIR/SP/G                  HT/PER/DIR
                          (F)     (DEG/KT/KT) (MB)    (MI)  (FT/S/D)
TANNER BANKS               57 57  310/ 12/ 14 1016.4          5/150/17
S CLEMENTE BASIN           62 63  270/ 14/ 16 1015.5          5/250/17
SAN NICOLAS IS.               56                N/A           3/190/18
SO. S. ROSA ISLA           54 53  300/ 12/ 14 1016.5          5/320/ 8
W. S. BARBARA CH           55 54  310/ 19/ 21 1015.3          5/310/ 8
M. S. BARBARA CH                  230/ 12/ 14 1015.9R
S. MONICA BASIN            60 60  260/  4/  4 1015.4R         3/210/17
S PEDRO CHANNEL               60                N/A           2/260/12
CMP PENDLETON NS              64                N/A           3/220/18
OCEANSIDE OFFSHR              65                N/A           2/190/18
TORREY PINES OTR              64                N/A           2/200/17
POINT LOMA SOUTH              63                N/A           3/200/18

$$




USA.gov is the U.S. government's official web portal to all federal, state and local government web resources and services.